Regional Weather Roundup
Issued by NWS

Home | Current Version | Previous Version | Text Only | Print | Product List | Glossary Off
Versions: 1 2 3 4 5 6 7 8 9 10 11 12 13 14 15 16 17 18 19 20 21 22 23 24 25 26 27 28 29 30 31 32 33 34 35 36 37 38 39 40 41 42 43 44 45 46 47 48 49 50

598
ASUS43 KDMX 282306
RWRIA

WEATHER ROUNDUP FOR IOWA
NATIONAL WEATHER SERVICE DES MOINES IA
600 PM CDT WED JUN 28 2017

NOTE: "FAIR" INDICATES FEW OR NO CLOUDS BELOW 12,000 FEET WITH NO
SIGNIFICANT WEATHER AND/OR OBSTRUCTIONS TO VISIBILITY.

* - THESE STATIONS ARE NOT NWS STATIONS...THUS NOT UNDER NWS
QUALITY CONTROL.  THEY ALSO DO NOT REPORT WEATHER SUCH
AS PRECIPITATION OR FOG.

IAZ001>003-012>014-020>022-031>034-043>046-290000-
   NORTHWEST IOWA

CITY           SKY/WX    TMP DP  RH WIND       PRES   REMARKS
CARROLL *      MOSUNNY   88  68  51 SW15G21   29.62R HX  91
CHEROKEE *     SUNNY     85  62  46 W9G18     29.61S HX  85
DENISON *      SUNNY     86  68  54 W12G17    29.64R HX  89
LE MARS *      MOSUNNY   86  63  45 W12G20    29.64R HX  87
ORANGE CITY *  MOSUNNY   84  64  51 W14       29.63F HX  86
SHELDON *      MOSUNNY   84  64  51 W15       29.61S HX  86
SIOUX CITY     SUNNY     87  66  49 NW10      29.62S HX  89
SPENCER        SUNNY     85  63  47 W15       29.61F HX  86
STORM LAKE *   SUNNY     84  64  51 W15G22    29.62S HX  86
$$

IAZ055>058-069>071-079>083-090>094-290000-
   SOUTHWEST IOWA

CITY           SKY/WX    TMP DP  RH WIND       PRES   REMARKS
ATLANTIC *     CLOUDY    82  68  61 S13       29.64S HX  85
AUDUBON *      CLOUDY    84  75  74 SW9       29.65R HX  92
CLARINDA *     CLOUDY    70  68  94 CALM      29.69F FOG
COUNCIL BLFS * SUNNY     88  68  51 W10G16    29.64R HX  91
CRESTON *      CLOUDY    72  61  68 SW16G28   29.71R
HARLAN  *      MOSUNNY   86  68  54 W15       29.68R HX  89
LAMONI         TSTM      80  70  71 S9        29.72R HX  83
RED OAK *      CLOUDY    81  70  69 CALM      29.65F HX  84
SHENANDOAH *   RAIN      75  70  83 SW9       29.64F
$$

IAZ047>049-059>061-072>074-084-290000-
   CENTRAL IOWA

CITY           SKY/WX    TMP DP  RH WIND       PRES   REMARKS
AMES           CLOUDY    79  68  69 S21G32    29.62S HX  81
ANKENY *       DRIZZLE   72  70  94 CALM      29.67S
BOONE *        CLOUDY    81  73  78 S14G23    29.63R HX  85
CHARITON *     CLOUDY    81  72  74 S16G22    29.69R HX  84
DES MOINES     TSTM      72  68  87 S9        29.66F
GRINNELL*      CLOUDY    80  69  69 S15G21    29.66S HX  83
KNOXVILLE *    RAIN      79  72  78 S16       29.65S HX  82
MARSHALLTOWN   TSTM      77  74  90 S26G35    29.67R FOG
NEWTON *       CLOUDY    79  72  78 SW13      29.66R HX  82
PELLA *        CLOUDY    81  69  68 S13G20    29.67S HX  84
PERRY *        PTSUNNY   82  75  79 S16       29.64R HX  89
$$

IAZ004>006-015-016-023>025-035-036-290000-
   NORTH CENTRAL IOWA

CITY           SKY/WX    TMP DP  RH WIND       PRES   REMARKS
ALGONA *       SUNNY     84  68  58 W13       29.58F HX  87
CLARION *        N/A     79  72  78 W9        29.58F HX  82
ESTHERVILLE    SUNNY     82  65  56 W16       29.59F HX  84
FORT DODGE *   MOSUNNY   81  72  74 S5        29.61R HX  84
MASON CITY     CLOUDY    81  69  67 SW15      29.59F HX  84
FOREST CITY *  PTSUNNY   82  64  54 SW10      29.57F HX  84
WEBSTER CITY * CLOUDY    75  68  78 SW9G15    29.58F
IOWA FALLS *   HVY RAIN  68  64  87 SW17G26   29.70R
$$

IAZ007>011-017>019-026>030-037>042-050>054-066-290000-
   NORTHEAST IOWA

CITY           SKY/WX    TMP DP  RH WIND       PRES   REMARKS
CEDAR RAPIDS   PTSUNNY   82  72  71 S18G30    29.65F HX  87
CHARLES CITY * CLOUDY    72  72 100 S5        29.61S
CLINTON *      CLOUDY    78  70  76 S14       29.72F HX  80
DECORAH *      CLOUDY    63  63 100 S8        29.63F
DUBUQUE        PTSUNNY   75  70  84 SW15G25   29.66F
MONTICELLO *   CLOUDY    79  72  78 S15       29.64F HX  82
OELWEIN *      CLOUDY    68  66  94 NW10      29.64F
WATERLOO       CLOUDY    80  68  66 S16       29.60F HX  83
$$

IAZ064-065-067-068-078-290000-
   EAST CENTRAL IOWA

CITY           SKY/WX    TMP DP  RH WIND       PRES   REMARKS
IOWA CITY      MOSUNNY   85  69  58 S18G26    29.69F HX  89
MT. PLEASANT * PTSUNNY   83  67  59 S21G26    29.72F HX  85
MUSCATINE *    MOSUNNY   84  70  61 SW15G28   29.72R HX  88
QUAD CITIES    CLOUDY    82  68  62 S13G21    29.72F HX  85
$$

IAZ062-063-075>077-085>089-095>099-290000-
   SOUTHEAST IOWA

CITY           SKY/WX    TMP DP  RH WIND       PRES   REMARKS
BURLINGTON     MOSUNNY   84  70  62 S20G25    29.74F HX  88
FAIRFIELD *    PTSUNNY   84  68  58 S18G25    29.71S HX  87
FORT MADISON * MOSUNNY   84  70  61 S15G22    29.75S HX  88
KEOKUK *       MOSUNNY   84  70  61 S13G21    29.75R HX  88
OSKALOOSA *      N/A     81  69  65 S16G23    29.68F HX  84
CENTERVILLE *    N/A     81  70  69 S17       29.73S HX  84
OTTUMWA        PTSUNNY   83  69  62 S17G28    29.68F HX  86
WASHINGTON *   CLOUDY    82  70  65 S20G31    29.71S HX  86
$$

ABBREVIATIONS USED IN REMARKS
   TC - TEMPERATURES IN CELSIUS
  WCI - WIND CHILL INDEX
   HX - HEAT INDEX
  VSB - VISIBILITY
$$





USA.gov is the U.S. government's official web portal to all federal, state and local government web resources and services.